Vorticity
nan nan nan nan nan nan nan nan nan nan nan nan nan nan nan nan nan nan nan nan nan nan nan nan nan nan nan nan nan nan nan nan nan nan nan nan nan nan nan nan nan nan nan
nan 7 7 5 6 5 6 6 5 6 6 5 5 5 6 5 5 5 5 5 5 5 5 6 6 6 7 7 7 6 7 6 8 7 3 3 5 5 5 4 8 7 nan
nan 7 7 5 6 5 6 5 6 6 6 5 6 6 6 6 6 5 6 5 6 6 5 6 7 7 7 6 6 5 6 8 9 6 3 4 5 7 6 6 6 5 nan
nan 5 7 6 6 6 5 6 7 6 6 7 6 6 6 5 6 5 5 6 5 5 6 6 6 6 6 6 5 6 5 5 8 7 6 6 5 5 5 6 6 5 nan
nan 5 8 7 6 6 5 5 6 6 6 6 6 7 7 6 6 7 6 7 6 6 6 6 6 6 6 6 5 4 5 4 5 7 8 7 7 7 6 6 5 3 nan
nan 7 7 5 5 5 5 6 5 4 6 7 7 7 6 6 6 7 6 6 7 7 6 6 6 6 6 7 9 9 6 4 4 6 6 6 9 9 5 6 6 7 nan
nan 6 6 5 5 5 5 5 6 5 6 6 7 7 6 7 6 6 7 7 8 7 7 6 5 5 6 8 11 12 8 5 6 6 7 7 7 7 6 6 6 5 nan
nan 5 5 7 5 5 5 5 6 7 5 6 6 6 6 6 5 5 6 6 7 7 7 7 6 5 7 10 9 7 7 6 6 5 7 5 4 8 7 7 6 6 nan
nan 5 5 6 5 5 5 5 5 6 5 6 7 5 6 6 6 6 4 5 6 7 7 6 6 5 7 12 7 5 6 5 6 7 7 7 6 7 7 6 7 6 nan
nan 4 5 6 6 5 5 6 5 5 6 6 5 6 4 3 4 5 6 5 6 5 6 6 7 6 7 8 7 7 5 3 6 7 5 8 8 7 7 6 6 6 nan
nan 6 5 5 6 6 6 6 5 6 4 5 2 3 5 4 6 4 6 7 5 6 8 8 8 6 4 6 6 5 2 4 5 6 8 7 7 6 6 7 6 5 nan
nan 4 5 5 5 5 7 6 5 3 3 4 5 4 5 5 4 6 5 4 4 6 5 8 9 7 5 4 6 3 5 7 6 6 9 7 8 6 7 6 6 6 nan
nan 4 6 5 5 5 5 4 5 6 6 6 6 6 5 5 6 6 6 5 5 5 6 6 6 7 9 7 5 7 9 6 6 6 7 6 8 8 7 5 6 6 nan
nan 5 5 5 5 4 4 6 6 6 6 6 6 6 5 6 7 6 7 6 6 5 6 7 7 8 11 11 8 7 7 8 8 8 6 7 6 6 7 8 7 6 nan
nan 6 6 4 5 5 5 6 6 6 7 7 7 7 7 7 7 7 7 6 6 6 6 8 8 8 10 13 11 7 6 7 8 7 7 8 7 6 5 7 7 5 nan
nan 7 6 5 5 5 5 6 6 6 7 6 7 8 7 6 6 7 8 8 8 8 8 7 8 8 10 11 11 8 6 7 7 8 8 8 7 7 7 5 4 5 nan
nan 7 7 6 5 5 5 5 6 7 7 6 7 7 6 7 7 7 7 8 8 9 8 8 8 7 7 8 8 8 7 7 8 8 7 8 9 6 7 8 7 6 nan
nan 7 5 7 7 5 5 5 6 7 6 7 6 7 7 6 6 8 8 7 8 7 7 7 8 7 7 8 7 7 8 7 7 7 7 7 8 11 10 9 8 7 nan
nan 7 6 7 7 6 5 6 7 7 6 6 6 7 8 8 6 6 8 8 6 6 8 7 8 9 8 8 8 6 7 8 7 7 7 7 8 8 10 9 9 10 nan
nan 7 6 7 7 7 6 7 7 7 7 7 7 9 9 9 8 7 7 8 7 7 8 7 8 10 10 8 7 8 8 8 7 7 7 7 7 9 8 7 10 9 nan
nan 7 7 6 6 6 7 7 7 8 7 8 10 11 10 9 8 7 7 8 9 7 7 8 7 7 9 8 6 6 7 10 9 6 6 7 6 7 8 8 7 9 nan
nan 6 7 7 6 5 5 6 9 10 8 8 11 11 10 9 7 6 7 7 8 9 7 7 7 6 8 8 6 7 8 7 8 9 8 7 6 6 8 7 7 8 nan
nan 7 7 8 7 6 6 4 6 6 8 9 8 9 11 9 7 7 6 6 7 7 8 8 8 8 7 8 6 9 9 8 9 10 9 8 8 6 7 7 8 8 nan
nan 7 7 8 7 8 7 6 5 4 5 7 7 7 10 11 7 6 7 7 7 7 8 8 7 8 9 8 7 7 7 9 11 10 10 10 9 9 8 7 8 8 nan
nan 7 8 8 7 9 7 6 6 6 6 8 8 7 8 10 10 8 7 7 7 8 8 8 7 7 7 8 8 7 7 7 7 6 8 11 10 10 10 8 7 8 nan
nan nan nan nan nan nan nan nan nan nan nan nan nan nan nan nan nan nan nan nan nan nan nan nan nan nan nan nan nan nan nan nan nan nan nan nan nan nan nan nan nan nan nan
CAPE
53 366 1371 1424 1356 1656 1602 1584 1700 1777 1793 1892 2059 1796 1757 1865 1941 2436 1851 1618 1447 1285 1383 962 1036 1123 1236 1284 1509 1650 1860 1849 2261 2286 2499 2393 2560 2343 2310 1995 2057 1559 2124
77 732 1589 1988 1859 1684 2190 2123 1966 2126 1874 1919 1903 2061 2231 2332 2131 1916 1799 1792 1997 2051 1781 1461 912 1180 1214 1075 1412 1621 1519 1648 2125 2314 2365 2347 2379 2277 2285 2012 2025 1872 1904
111 705 1173 1807 1897 1866 2025 1990 2194 2300 2105 2193 2180 2108 2284 1985 2000 1944 1831 1892 1857 1760 1722 1577 1511 1222 1403 1778 1170 1292 2006 1990 2202 2224 2043 1969 1971 2296 2159 2115 1949 2045 1881
134 844 888 1724 2105 1910 2031 2270 2105 2166 1905 1982 2131 2176 1934 1912 1879 2000 1880 1712 1604 1552 1689 1424 1513 1602 1627 1752 1763 1468 1566 1912 1858 1915 1620 1664 1803 2131 2076 1746 2003 1960 1880
383 938 1228 1661 1968 1781 1732 2126 2127 2094 2119 2101 2126 1958 1907 1783 1723 1744 1805 1713 1624 1399 1759 1418 1418 1177 1238 1095 1246 1540 1401 1519 1469 1413 1756 1734 1803 2090 1951 1949 1905 1855 1860
644 666 1460 1538 1812 1944 2056 2019 1740 2067 2140 2081 2032 1994 1832 1930 1932 1862 1819 1712 1710 1691 1547 1328 1368 1247 1282 1259 1316 1550 1521 1323 1027 1498 1584 1746 1775 1892 1989 1873 1796 1912 1730
397 836 1000 2054 2172 1790 1949 1723 2108 2067 1803 1834 1779 1959 1993 1997 1955 1930 1806 1759 1696 1619 1505 1404 1260 1269 1162 1222 1742 1965 1790 1115 1065 1474 1634 1728 1822 1847 1840 1927 1837 1692 1973
360 773 1244 1700 1795 2016 1885 1873 1942 1953 1908 1990 2079 2097 2031 2056 2019 1901 1758 1611 1516 1572 1566 1460 1406 1361 1185 1436 1759 1698 1381 830 1041 1538 1623 1654 1875 2051 1868 1851 1807 1812 1573
470 768 1372 906 1624 1812 1781 1833 1864 1892 2063 2104 2226 2145 2110 2007 1952 1835 1614 1400 1315 1315 1293 1182 1266 1403 1376 1354 1880 1779 1554 1605 1390 1431 1080 806 1746 1817 1794 1796 1791 1799 1637
549 1022 1286 1025 1573 1593 1727 1852 1798 1911 2003 2234 2129 2041 2008 2030 1957 1862 2045 1820 1271 1086 915 997 1219 1185 1435 1712 1695 1777 1490 1486 998 1205 1248 1494 1731 1526 1815 1763 1755 1742 1649
712 1059 934 1354 1322 1814 1840 1784 1858 1860 2012 1920 1929 2185 1944 1851 1775 1326 1561 1374 1281 1220 1454 1453 1025 1196 1403 1628 1778 1805 1272 1053 850 949 1191 1586 1937 1771 1783 1736 1732 1702 1604
680 1004 909 903 1051 1366 1469 1729 1809 1498 1311 1474 1761 1876 1925 1649 1455 1124 1160 1416 1387 1446 1361 1653 1768 1337 783 1208 1687 1575 934 1164 730 816 1348 1610 1735 1434 1774 1677 1668 1614 1697
546 984 1204 950 1404 1157 1369 1509 1564 1477 1471 1651 1699 1223 1495 1340 1350 1326 1125 1334 928 840 1035 1315 1404 1170 1410 849 1301 1153 1201 1192 717 706 1143 1440 1345 1468 1473 1491 1492 1516 1553
385 723 1220 947 1328 1177 1407 1347 1444 1331 1341 1236 990 1055 1259 1056 1302 1351 1058 1176 1133 1096 1280 1246 1359 1010 802 994 1120 1126 1148 1073 542 659 797 1371 1086 1068 1587 1562 1442 1355 1313
466 693 1026 1062 1175 1292 1425 1195 1227 1272 1128 981 780 461 731 988 1492 1353 1212 927 1140 1267 878 1068 1084 710 869 555 904 1164 1165 1029 483 484 1120 1126 1187 825 637 1448 1554 1369 1173
288 422 896 1076 998 1169 1001 1299 1118 1097 955 842 713 299 702 1142 1462 1625 1912 1221 1446 1473 1240 1241 752 539 752 1040 1228 1127 1198 967 547 498 575 1238 1178 999 967 483 640 829 1093
202 381 778 966 911 1016 983 1006 770 655 670 927 1159 469 559 1103 1080 1442 1573 2036 1451 1356 1034 1491 1268 839 546 803 1190 1116 1072 906 564 425 452 639 1058 1009 884 987 828 575 539
273 361 751 616 673 708 706 732 466 347 502 899 1115 1243 1124 1063 1078 1762 1618 1462 1424 1318 1239 1344 1187 630 475 397 787 833 902 680 479 265 343 414 551 559 1098 907 911 1195 1142
428 453 538 690 625 539 571 511 363 338 481 725 883 1024 1286 1293 1295 1678 1525 1576 1675 1638 1639 1400 1478 1259 805 303 240 491 690 591 307 74 443 504 520 547 753 1122 1054 917 968
469 453 420 568 673 633 496 601 299 63 246 598 749 863 1128 1301 1383 1803 1562 1619 1552 1896 1447 1412 416 84 660 646 65 53 157 308 432 145 287 314 326 426 614 966 768 674 760
482 421 425 449 683 518 385 364 248 79 193 512 828 1154 1343 1361 1638 2002 1651 1546 1596 1593 1547 1423 490 261 93 107 92 72 63 47 338 274 260 296 429 368 497 692 626 494 462
471 440 458 429 681 684 428 674 234 468 639 911 1250 1399 1468 1423 1901 2127 1891 1652 1625 1472 1785 1431 1109 75 64 55 55 63 36 38 35 117 283 384 505 486 444 522 679 658 603
355 420 454 556 671 754 762 581 608 742 747 835 1147 1464 1489 1479 1864 2255 1946 1683 1674 2060 2382 1712 1157 331 46 137 57 32 21 23 47 27 139 327 682 641 586 554 552 617 665
267 303 600 632 633 681 930 794 1192 578 607 777 1004 1215 1565 1561 1638 2017 2288 1956 2148 1678 2021 1725 1475 734 291 163 156 73 59 74 16 18 11 161 365 630 650 586 392 596 753
240 219 196 684 975 1086 1172 1192 936 1017 657 858 806 1243 1728 1690 1629 1699 2035 1986 2236 2148 2030 1993 1923 1648 331 79 111 451 585 73 19 6 18 34 31 109 275 688 458 558 770
213 225 208 648 933 1059 1009 1012 1513 1674 1231 810 944 814 958 1310 1431 1625 1819 2113 2138 2024 2143 2087 2170 1972 1592 691 74 297 365 331 244 137 66 308 234 216 307 479 542 513 664